Retour au catalogue

COSMOS 1109 DEB

LostHEO
NORAD 32979·DEBRIS·🇷🇺 Russia

Lancé Jun 27, 1979 depuis Plesetsk Cosmodrome

Loading…

Prochains Passages (prochaines 24 heures)

TLE

PériméSource: Space-Track

Époque: Jul 26, 2023, 02:19 UTC

1 32979U 79058U   23207.09663877  .00000560  00000-0  00000+0 0  9999
2 32979  72.8536  48.7899 5875939 148.9251 265.6138  1.98220354122600

Suivez COSMOS 1109 DEB en temps réel avec AllMySat

Download on the App Store